Showing default

BUCCANEER MM, 63245

Orbit data source: Space-Track

BUCCANEER MM, 63245 is an Australian payload satellite in SSO that was launched on Sat, 15 Mar 2025 UTC via an FALCON 9 launch vehicle from the Air Force Western Test Range (AFWTR). Payload-class satellites include a variety of spacecraft equipped with specific instruments for various scientific and technological missions. These include communications satellites like Starlink; space stations such as the ISS; scientific satellites like the Hubble; Earth observation satellites from companies like Planet Labs, Umbra, and HawkEye 360; GPS; miniature CubeSats for education and research; and military/defense satellites.

Loading next visibility...
Identifier
63245, 2025-052AM
Orbit
SSO
Country
Flag of AUAU / AUS
Related business
Manufacturer
U. NSW
Mission
Operational Amateur Technology
Bus & Motor
CUBESAT 6U, Unknown motor
Mass
~10 kg wet, ~10 kg dry
Launch date (UTC)
2025-03-15 (1 year ago)
Launch vehicle
FALCON 9
Launch site
Air Force Western Test Range (AFWTR)
Object type
Payload
Rocket body
Debris
Shape & HBR
Box + 2 Ant, 0.2 m
Radar Cross Section
0.160 m², Medium (>0.1 m² and < 1m²)

Expand to show TLE details & history
Last TLE update: 6 hours ago

TLE from 6 hours ago
0 BUCCANEER MM
1 63245U 25052AM  26221.85252106  .00001724  00000-0  16312-3 0  9996
2 63245  97.6792 111.7536 0005300  50.4145 309.7543 14.94929963 76610
Epoch: 2026-08-09T20:27Z
TLE epoch observation values (Epoch: 2026-08-09T20:27:37.819Z)
Latitude
-0.00004°
Longitude
-153.49754°
Altitude
583.28 km
Speed
7.57 km/s
True Right ascension
07h 27m 00s
True Declination
0° 00' 00"
Sunlit
Object was in daylight at epoch
Visualization orbit readout
Latitude
Unknown
Longitude
Unknown
Altitude
Unknown
Speed
Unknown
Apparent Right ascension
Unknown
Apparent Declination
Unknown
Sunlit
N/A
Visualization observer readout
Local Sidereal Time
16:45:41
Azimuth
Unknown
Elevation
Unknown
Doppler factor
Unknown
Orbital elements
Apogee altitude
583.289 km
Perigee altitude
575.914 km
Semi-major axis
6,957.738 km
Eccentricity
0.00053
Inclination
97.6792°
RAAN
111.7536°
Arg. of periapsis
50.4145°
True anomaly
309.70759°
Mean anomaly
309.7543°
Eccentric anomaly
309.73095°
Mean motion
3.73974 °/min
Orbital period
96.26 mins
BSTAR
0.00016312
Loading maneuver chart data...
Computing Atmospheric mass density...
Loading historical data...
Loading historical data...
Loading historical data...
Loading historical data...
Loading historical data...
Loading historical data...
Loading historical data...

Documentation

Showing up to 5 results
|